Location: Beekmeers
(50.8953°N, 3.6968°E)
Time: 01:27:48
(UTC+00:00)

ADEOS II - Pass Details

Date: 23 May 2024
Orbit: 795 x 798 km, 98.7° (Epoch: 17 June)

Event Time Altitude Azimuth Distance (km) Brightness Sun altitude
Rises 01:12:15 0° 23° (NNE) 3,313 7.2 -15.8°
Reaches altitude 10° 01:14:57 10° 35° (NE) 2,378 5.8 -15.6°
Maximum altitude 01:19:23 27° 93° (E) 1,486 3.7 -15.3°
Drops below altitude 10° 01:23:47 10° 151° (SSE) 2,363 4.2 -15.0°
Enters shadow 01:24:16 - 154° (SSE) 2,520 4.3 -15.0°
